Weather History for Thermopolis, WY

Change the Weather History Date:

Monday, November 26, 2012

  Actual Average (KWRL) Record (KWRL)
Temperature  
Mean Temperature 22 °F 24 °F  
Max Temperature 26 °F 37 °F 66 °F (1998)
Min Temperature 19 °F 11 °F -15 °F (1985)
Degree Days  
Heating Degree Days 42 41  
Month to date heating degree days 863  
Since 1 July heating degree days 1725  
Cooling Degree Days 0 0  
Month to date cooling degree days 0  
Year to date cooling degree days 535  
Moisture  
Dew Point 19 °F    
Average Humidity 87    
Maximum Humidity 100    
Minimum Humidity 69    
Precipitation  
Precipitation 0.00 in 0.01 in 0.40 in (2005)
Month to date precipitation 0.31  
Year to date precipitation 7.30  
Sea Level Pressure  
Sea Level Pressure 30.21 in    
Wind  
Wind Speed 17 mph ()    
Max Wind Speed 30 mph    
Max Gust Speed 34 mph    
T = Trace of Precipitation, MM = Missing Value Source: Averaged Metar Reports

Daily Weather History Graph

Daily Weather History Graph

Search for Another Location

Airport:

Trip Planner

Search our weather history database for the weather conditions in past years. The results will help you decide how hot, cold, wet, or windy it might be!

Date:

Astronomy

Nov. 26, 2012 Rise Set
Actual Time 7:20 AM MST 4:39 PM MST
Civil Twilight 6:49 AM MST 5:11 PM MST
Nautical Twilight 6:13 AM MST 5:46 PM MST
Astronomical Twilight 5:39 AM MST 6:21 PM MST
Moon 3:35 PM MST (11/26) 5:32 AM MST (11/26)
Length of Visible Light 10h 22m
Length of Day
9h 18m
Waxing Gibbous, 97% of the Moon is Illuminated
Nov 26
Waxing Gibbous
Nov 28
Full
Dec 6
Last Quarter
Dec 13
New
Dec 19
First Quarter

Hourly Weather History & Observations

Time (MST) Temp. Windchill Dew Point Humidity Pressure Visibility Wind Dir Wind Speed Gust Speed Precip Events Conditions
12:35 AM 21.2 °F 3.0 °F 19.4 °F 93% 30.14 in - NW 29.9 mph - N/A   Overcast
12:55 AM 21.2 °F 3.5 °F 19.4 °F 93% 30.14 in - NW 27.6 mph - N/A   Overcast
1:15 AM 21.2 °F 3.5 °F 19.4 °F 93% 30.15 in - WNW 27.6 mph - N/A   Overcast
1:35 AM 21.2 °F - 19.4 °F 93% 30.16 in - North - - N/A   Overcast
1:55 AM 21.2 °F 3.3 °F 19.4 °F 93% 30.16 in - NW 28.8 mph - N/A   Overcast
2:15 AM 19.4 °F 0.8 °F 19.4 °F 100% 30.17 in - NW 28.8 mph - N/A   Overcast
2:35 AM 19.4 °F 1.8 °F 19.4 °F 100% 30.18 in - NW 25.3 mph - N/A   Overcast
2:55 AM 19.4 °F 2.5 °F 17.6 °F 93% 30.19 in - NW 23.0 mph - N/A   Overcast
3:15 AM 19.4 °F 2.5 °F 17.6 °F 93% 30.20 in - WNW 23.0 mph - N/A   Unknown
3:35 AM 19.4 °F 3.2 °F 17.6 °F 93% 30.21 in - WNW 20.7 mph - N/A   Overcast
3:55 AM 19.4 °F 2.8 °F 17.6 °F 93% 30.21 in - WNW 21.9 mph - N/A   Unknown
4:15 AM 19.4 °F 3.6 °F 17.6 °F 93% 30.22 in - WNW 19.6 mph - N/A   Unknown
4:35 AM 19.4 °F 3.6 °F 17.6 °F 93% 30.22 in - NW 19.6 mph - N/A   Unknown
4:55 AM - - - N/A% 30.23 in - NW 19.6 mph - N/A   Unknown
5:15 AM - - - N/A% 30.23 in - NW 16.1 mph - N/A   Unknown
5:35 AM - - - N/A% 30.24 in - NW 15.0 mph - N/A   Unknown
6:15 AM - - - N/A% 30.26 in - NW 9.2 mph - N/A   Overcast
6:35 AM - - - N/A% 30.26 in - WNW 8.1 mph - N/A   Overcast
6:55 AM - - - N/A% 30.27 in - NW 5.8 mph - N/A   Overcast
7:15 AM - - - N/A% 30.28 in - NW 3.5 mph - N/A   Overcast
7:35 AM - - - N/A% 30.28 in - Calm Calm - N/A   Overcast
7:55 AM - - - N/A% 30.28 in - Calm Calm - N/A   Overcast
8:15 AM - - - N/A% 30.28 in - East 6.9 mph - N/A   Unknown
8:35 AM - - - N/A% 30.28 in - ESE 9.2 mph - N/A   Overcast
8:55 AM - - - N/A% 30.28 in - ESE 9.2 mph - N/A   Overcast
9:15 AM - - - N/A% 30.28 in - ESE 12.7 mph - N/A   Overcast
9:35 AM - - - N/A% 30.28 in - ESE 18.4 mph - N/A   Overcast
9:55 AM - - - N/A% 30.27 in - SE 23.0 mph 28.8 mph N/A   Overcast
10:15 AM - - - N/A% 30.27 in - SE 23.0 mph - N/A   Overcast
10:35 AM - - - N/A% 30.26 in - SE 24.2 mph 29.9 mph N/A   Overcast
10:55 AM - - - N/A% 30.25 in - SE 24.2 mph 34.5 mph N/A   Overcast
11:15 AM - - - N/A% 30.25 in - SE 25.3 mph 32.2 mph N/A   Overcast
11:35 AM - - - N/A% 30.24 in - SE 20.7 mph 28.8 mph N/A   Overcast
11:55 AM - - - N/A% 30.23 in - SE 25.3 mph 29.9 mph N/A   Overcast
12:15 PM - - - N/A% 30.23 in - SE 26.5 mph 31.1 mph N/A   Overcast
12:35 PM - - - N/A% 30.21 in - SE 19.6 mph 27.6 mph N/A   Overcast
12:55 PM - - - N/A% 30.20 in - SE 21.9 mph 29.9 mph N/A   Mostly Cloudy
1:15 PM - - - N/A% 30.19 in - SE 21.9 mph 26.5 mph N/A   Overcast
1:35 PM - - - N/A% 30.19 in - SE 25.3 mph 29.9 mph N/A   Overcast
2:15 PM - - - N/A% 30.16 in - SE 16.1 mph - N/A   Unknown
2:35 PM - - - N/A% 30.16 in - SE 20.7 mph 24.2 mph N/A   Unknown
2:55 PM - - - N/A% 30.16 in - SE 17.3 mph - N/A   Unknown
3:35 PM - - - N/A% 30.16 in - SE 10.4 mph - N/A   Unknown
3:55 PM - - - N/A% 30.18 in - SSE 6.9 mph - N/A   Unknown
4:15 PM 23.0 °F 13.1 °F 21.2 °F 93% 30.17 in - SSE 9.2 mph - N/A   Unknown
4:35 PM 23.0 °F 13.1 °F 21.2 °F 93% 30.17 in - SSE 9.2 mph - N/A   Unknown
4:55 PM 23.0 °F 14.7 °F 21.2 °F 93% 30.17 in - South 6.9 mph - N/A   Unknown
5:35 PM 23.0 °F 17.0 °F 21.2 °F 93% 30.18 in - South 4.6 mph - N/A   Unknown
6:15 PM 23.0 °F 13.9 °F 19.4 °F 86% 30.18 in - South 8.1 mph - N/A   Unknown
6:35 PM 23.0 °F 13.1 °F 19.4 °F 86% 30.18 in - South 9.2 mph - N/A   Clear
6:55 PM 23.0 °F 11.7 °F 17.6 °F 80% 30.17 in - South 11.5 mph - N/A   Clear
7:15 PM 23.0 °F 12.4 °F 17.6 °F 80% 30.18 in - South 10.4 mph - N/A   Clear
7:35 PM 24.8 °F 16.1 °F 19.4 °F 80% 30.18 in - South 8.1 mph - N/A   Clear
7:55 PM 24.8 °F 15.3 °F 17.6 °F 74% 30.18 in - South 9.2 mph - N/A   Clear
8:15 PM 23.0 °F 15.8 °F 17.6 °F 80% 30.18 in - SSE 5.8 mph - N/A   Clear
8:35 PM 23.0 °F 12.4 °F 17.6 °F 80% 30.18 in - SSE 10.4 mph - N/A   Clear
8:55 PM 26.6 °F 17.5 °F 17.6 °F 69% 30.18 in - South 9.2 mph - N/A   Clear
9:15 PM 24.8 °F 15.3 °F 17.6 °F 74% 30.18 in - SSE 9.2 mph - N/A   Clear
9:35 PM 23.0 °F 11.1 °F 17.6 °F 80% 30.18 in - SSE 12.7 mph - N/A   Clear
10:15 PM 23.0 °F 13.1 °F 17.6 °F 80% 30.18 in - SSE 9.2 mph - N/A   Clear
10:35 PM 23.0 °F 13.1 °F 17.6 °F 80% 30.18 in - SSE 9.2 mph - N/A   Clear
10:55 PM 23.0 °F 12.4 °F 19.4 °F 86% 30.17 in - SSE 10.4 mph - N/A   Clear
11:15 PM 23.0 °F 12.4 °F 19.4 °F 86% 30.16 in - SSE 10.4 mph 17.3 mph N/A   Clear
11:35 PM 24.8 °F 14.6 °F 19.4 °F 80% 30.16 in - SE 10.4 mph - N/A   Clear
11:55 PM 24.8 °F 14.0 °F 19.4 °F 80% 30.17 in - SE 11.5 mph - N/A   Clear